TURKSAT 3A

Last updated on Fri Apr 25 2025 00:02:39 GMT+0000 (Coordinated Universal Time)

1 33056U 08030B 25114.18228574 .00000148 00000+0 00000+0 0 9999 2 33056 0.0685 79.0987 0005284 330.4049 270.5563 1.00271211 61875
UTC large
Height (km)
Speed (km/s)
/
Latitude / Longitude
Inclination (degrees)
Orbital Period (minutes)
Azimuth
Elevation
Range (km)
Doppler Factor

Next 0 passes for location: London (51.5072 / 0.1276)

Sorry there are no passes over London.